Regional Weather Roundup
Issued by NWS

Home | Current Version | Previous Version | Text Only | Print | Product List | Glossary On
Versions: 1 2 3 4 5 6 7 8 9 10 11 12 13 14 15 16 17 18 19 20 21 22 23 24 25 26 27 28 29 30 31 32 33 34 35 36 37 38 39 40 41 42 43 44 45 46 47 48 49 50
364
ASUS44 KJAN 301710
RWRMS

MISSISSIPPI HOURLY WEATHER ROUNDUP
NATIONAL WEATHER SERVICE JACKSON MS
1200 PM CDT THU MAR 30 2017

NOTE: "FAIR: INDICATES FEW OR NO CLOUDS BELOW 12,000 FEET WITH NO
SIGNIFICANT WEATHER AND/OR OBSTRUCTIONS TO VISIBILITY.

MSZ001>002-007>008-010>013-018>021-025>028-034>036-301800-
NORTHWEST MISSISSIPPI

CITY           SKY/WX    TMP DP  RH WIND       PRES   REMARKS
BATESVILLE     PTSUNNY   69  60  72 S16G25    29.73F
CLEVELAND      CLOUDY    70  64  80 SW20G29   29.72F
GREENWOOD      CLOUDY    69  63  81 S18G25    29.76F
GREENVILLE     CLOUDY    69  59  70 SW17      29.73F
OLIVE BRANCH   PTSUNNY  N/A N/A N/A S14G29    29.67F
OXFORD         PTSUNNY   66  57  72 SW14G23   29.75F
TUNICA         PTSUNNY   72  59  64 S24G32    29.68S
WINONA         CLOUDY    67  60  76 S8G18     29.78F
$$

MSZ003>006-009-014>017-022>024-029>033-037>039-301800-
NORTHEAST MISSISSIPPI

CITY           SKY/WX    TMP DP  RH WIND       PRES   REMARKS
COLUMBUS AFB   PTSUNNY   74  58  56 S12       29.78F
CORINTH        CLOUDY    72  55  56 S16G30    29.71F
GOLDN TRIANGLE CLOUDY    73  54  49 S21G29    29.76F
STARKVILLE     FAIR      72  55  56 S16G25    29.80F
TUPELO         CLOUDY    72  54  53 S16G32    29.75F
$$

MSZ040-058-301800-
CENTRAL MISSISSIPPI

CITY           SKY/WX    TMP DP  RH WIND       PRES   REMARKS
JACKSON INTL   CLOUDY    68  61  78 S17G25    29.80F
JACKSON HAWKNS CLOUDY    67  61  81 S17G28    29.81F
MADISON        FAIR      64  61  88 S7G17     29.81S
MERIDIAN KEY   PTSUNNY   71  62  73 S14       29.85F
MERIDIAN NAS   CLOUDY    73  56  54 S12G17    29.86S
RAYMOND        PTSUNNY   68  63  83 S10       29.81S
VICKSBURG VKS  CLOUDY    68  64  88 S12       29.78F
$$

MSZ059>079-301800-
SOUTH MISSISSIPPI

CITY           SKY/WX    TMP DP  RH WIND       PRES   REMARKS
BROOKHAVEN     FAIR      64  64 100 SE13G18   29.85F
COLUMBIA       LGT RAIN  64 N/A N/A S13G20    29.94S
HATTIESBURG    HVY RAIN  64  61  90 SW9       29.96R FOG
MCCOMB         LGT RAIN  62  59  90 SE18G25   29.85F
NATCHEZ        NOT AVBL
PINE BELT      CLOUDY    63  59  88 S14G21    29.95R
$$

MSZ080>082-301800-
COASTAL MISSISSIPPI

CITY           SKY/WX    TMP DP  RH WIND       PRES   REMARKS
BAY ST LOUIS   PTSUNNY   61  57  88 MISG      29.95R
BILOXI         TSTM      65  61  86 CALM      29.93R
PASCAGOULA     CLOUDY    77  67  71 S14G25    29.90F
GULFPORT       LGT RAIN  64  61  90 NW15      29.90F
$$

LAZ007>009-015>016-023>026-301800-
NORTHEAST LOUISIANA

CITY           SKY/WX    TMP DP  RH WIND       PRES   REMARKS
BASTROP        FAIR      69  51  53 SW10G16   29.78F
TALLULAH/VBURG NOT AVBL
VIDALIA        CLOUDY    65  63  94 SW7       29.81F
$$




USA.gov is the U.S. government's official web portal to all federal, state and local government web resources and services.